User: anonymous   Login
Location: Hamburg
(53.5500°N, 10.0000°E)
Time: 10:59:39
(UTC+01:00)
Language:

Iridium 10 - Orbit

View from above orbital plane
View from above orbital plane
View from above satellite
View from above satellite

Ground track
Ground track

The orbit data is extracted from the following two-line orbital elements,

1 24839U 97030D   16345.51214103  .00000223  00000-0  72509-4 0  9995
2 24839  86.3977  68.9594 0002190  95.8422 341.3498 14.34221502 19917
Epoch (UTC): 10 December 2016 12:17:28
Eccentricity: 0.0002190
inclination: 86.3977°
perigee height: 776 km
apogee height: 779 km
right ascension of ascending node: 68.9594°
argument of perigee: 95.8422°
revolutions per day: 14.34221502
mean anomaly at epoch: 341.3498°
orbit number at epoch: 1991

The dashed part of the orbit path shows where the satellite is in the earth's shadow,  

DLR